Time,TemperatureF,DewpointF,PressureIn,WindDirection,WindDirectionDegrees,WindSpeedMPH,WindSpeedGustMPH,Humidity,HourlyPrecipIn,Conditions,Clouds,dailyrainin,SolarRadiationWatts/m^2,SoftwareType,DateUTC
2013-01-13 00:04:00,4.3,-0.6,30.23,West,271,4.0,9.0,80,0.00,,,0.00,0.0,meteohub,2013-01-13 06:04:00,
2013-01-13 00:09:00,4.3,-0.2,30.23,WNW,286,4.0,9.0,81,0.00,,,0.00,0.0,meteohub,2013-01-13 06:09:00,
2013-01-13 00:14:00,4.3,-0.2,30.23,WNW,299,2.0,9.0,81,0.00,,,0.00,0.0,meteohub,2013-01-13 06:14:00,
2013-01-13 00:19:00,4.3,-0.2,30.23,WSW,248,4.0,6.0,81,0.00,,,0.00,0.0,meteohub,2013-01-13 06:19:00,
2013-01-13 00:24:00,4.3,-0.2,30.23,WSW,257,6.0,7.0,81,0.00,,,0.00,0.0,meteohub,2013-01-13 06:24:00,
2013-01-13 00:29:00,4.3,-0.2,30.22,West,278,4.0,9.0,81,0.00,,,0.00,0.0,meteohub,2013-01-13 06:29:00,
2013-01-13 00:34:00,4.1,-0.4,30.22,West,261,4.0,10.0,81,0.00,,,0.00,0.0,meteohub,2013-01-13 06:34:00,
2013-01-13 00:39:00,3.9,-0.9,30.22,West,274,2.0,10.0,80,0.00,,,0.00,0.0,meteohub,2013-01-13 06:39:00,
2013-01-13 00:44:00,3.9,-0.9,30.22,NNW,327,4.0,9.0,80,0.00,,,0.00,0.0,meteohub,2013-01-13 06:44:00,
2013-01-13 00:49:00,3.9,-0.9,30.22,NW,322,1.0,9.0,80,0.00,,,0.00,0.0,meteohub,2013-01-13 06:49:00,
2013-01-13 00:54:00,3.9,-0.9,30.22,WSW,247,4.0,10.0,80,0.00,,,0.00,0.0,meteohub,2013-01-13 06:54:00,
2013-01-13 00:59:00,3.9,-0.9,30.21,NNW,338,4.0,10.0,80,0.00,,,0.00,0.0,meteohub,2013-01-13 06:59:00,
2013-01-13 01:04:00,3.7,-1.3,30.21,NNW,345,5.0,11.0,79,0.00,,,0.00,0.0,meteohub,2013-01-13 07:04:00,
2013-01-13 01:09:00,3.7,-1.3,30.21,WNW,286,3.0,11.0,79,0.00,,,0.00,0.0,meteohub,2013-01-13 07:09:00,
2013-01-13 01:14:00,3.6,-1.3,30.22,West,267,7.0,11.0,80,0.00,,,0.00,0.0,meteohub,2013-01-13 07:14:00,
2013-01-13 01:19:00,3.6,-1.3,30.22,North,350,4.0,11.0,80,0.00,,,0.00,0.0,meteohub,2013-01-13 07:19:00,
2013-01-13 01:24:00,3.6,-1.3,30.21,NW,308,2.0,11.0,80,0.00,,,0.00,0.0,meteohub,2013-01-13 07:24:00,
2013-01-13 01:29:00,3.4,-1.1,30.21,NNW,344,7.0,8.0,81,0.00,,,0.00,0.0,meteohub,2013-01-13 07:29:00,
2013-01-13 01:34:00,3.4,-1.1,30.21,WNW,291,3.0,7.0,81,0.00,,,0.00,0.0,meteohub,2013-01-13 07:34:00,
2013-01-13 01:39:00,3.2,-1.3,30.22,West,271,7.0,9.0,81,0.00,,,0.00,0.0,meteohub,2013-01-13 07:39:00,
2013-01-13 01:44:00,3.0,-1.7,30.22,West,270,5.0,10.0,80,0.00,,,0.00,0.0,meteohub,2013-01-13 07:44:00,
2013-01-13 01:49:00,2.8,-1.8,30.21,WSW,247,3.0,10.0,80,0.00,,,0.00,0.0,meteohub,2013-01-13 07:49:00,
2013-01-13 01:54:00,2.7,-2.0,30.21,West,267,5.0,10.0,80,0.00,,,0.00,0.0,meteohub,2013-01-13 07:54:00,
2013-01-13 01:59:00,2.7,-2.4,30.21,NNW,340,1.0,10.0,79,0.00,,,0.00,0.0,meteohub,2013-01-13 07:59:00,
2013-01-13 02:04:00,2.5,-2.6,30.21,NNW,327,4.0,10.0,79,0.00,,,0.00,0.0,meteohub,2013-01-13 08:04:00,
2013-01-13 02:09:00,2.3,-2.7,30.22,NNW,330,2.0,10.0,79,0.00,,,0.00,0.0,meteohub,2013-01-13 08:09:00,
2013-01-13 02:14:00,2.1,-2.6,30.22,West,278,6.0,8.0,80,0.00,,,0.00,0.0,meteohub,2013-01-13 08:14:00,
2013-01-13 02:19:00,1.9,-2.7,30.22,WSW,237,2.0,9.0,80,0.00,,,0.00,0.0,meteohub,2013-01-13 08:19:00,
2013-01-13 02:24:00,1.9,-2.7,30.22,WSW,258,2.0,9.0,80,0.00,,,0.00,0.0,meteohub,2013-01-13 08:24:00,
2013-01-13 02:29:00,1.8,-2.9,30.22,WNW,286,2.0,9.0,80,0.00,,,0.00,0.0,meteohub,2013-01-13 08:29:00,
2013-01-13 02:34:00,1.8,-2.9,30.22,NNW,331,3.0,10.0,80,0.00,,,0.00,0.0,meteohub,2013-01-13 08:34:00,
2013-01-13 02:39:00,1.8,-2.7,30.23,WNW,301,1.0,10.0,81,0.00,,,0.00,0.0,meteohub,2013-01-13 08:39:00,
2013-01-13 02:44:00,1.6,-2.9,30.23,West,269,2.0,10.0,81,0.00,,,0.00,0.0,meteohub,2013-01-13 08:44:00,
2013-01-13 02:49:00,1.6,-2.9,30.23,NNW,344,2.0,8.0,81,0.00,,,0.00,0.0,meteohub,2013-01-13 08:49:00,
2013-01-13 02:54:00,1.4,-3.1,30.23,NNW,329,2.0,5.0,81,0.00,,,0.00,0.0,meteohub,2013-01-13 08:54:00,
2013-01-13 02:59:00,1.4,-2.7,30.23,WNW,287,0.0,8.0,82,0.00,,,0.00,0.0,meteohub,2013-01-13 08:59:00,
2013-01-13 03:04:00,1.4,-2.7,30.23,North,0,2.0,8.0,82,0.00,,,0.00,0.0,meteohub,2013-01-13 09:04:00,
2013-01-13 03:09:00,1.6,-2.9,30.23,West,274,3.0,8.0,81,0.00,,,0.00,0.0,meteohub,2013-01-13 09:09:00,
2013-01-13 03:14:00,1.6,-2.9,30.24,NNW,328,5.0,11.0,81,0.00,,,0.00,0.0,meteohub,2013-01-13 09:14:00,
2013-01-13 03:19:00,1.6,-3.1,30.24,West,272,3.0,11.0,80,0.00,,,0.00,0.0,meteohub,2013-01-13 09:19:00,
2013-01-13 03:24:00,1.6,-3.1,30.24,WNW,290,3.0,11.0,80,0.00,,,0.00,0.0,meteohub,2013-01-13 09:24:00,
2013-01-13 03:30:00,1.6,-2.9,30.24,West,275,6.0,9.0,81,0.00,,,0.00,0.0,meteohub,2013-01-13 09:30:00,
2013-01-13 03:35:00,1.4,-3.1,30.24,West,269,4.0,8.0,81,0.00,,,0.00,0.0,meteohub,2013-01-13 09:35:00,
2013-01-13 03:40:00,1.2,-3.3,30.24,West,281,2.0,9.0,81,0.00,,,0.00,0.0,meteohub,2013-01-13 09:40:00,
2013-01-13 03:45:00,1.2,-3.3,30.24,WNW,302,3.0,9.0,81,0.00,,,0.00,0.0,meteohub,2013-01-13 09:45:00,
2013-01-13 03:50:00,1.0,-3.5,30.25,West,271,1.0,9.0,81,0.00,,,0.00,0.0,meteohub,2013-01-13 09:50:00,
2013-01-13 03:55:00,1.0,-3.5,30.25,West,279,3.0,7.0,81,0.00,,,0.00,0.0,meteohub,2013-01-13 09:55:00,
2013-01-13 04:00:00,1.0,-3.5,30.25,West,279,4.0,7.0,81,0.00,,,0.00,0.0,meteohub,2013-01-13 10:00:00,
2013-01-13 04:05:00,0.9,-3.3,30.25,West,264,1.0,7.0,82,0.00,,,0.00,0.0,meteohub,2013-01-13 10:05:00,
2013-01-13 04:10:00,1.0,-3.1,30.25,West,267,3.0,7.0,82,0.00,,,0.00,0.0,meteohub,2013-01-13 10:10:00,
2013-01-13 04:15:00,1.0,-2.9,30.25,West,280,2.0,6.0,83,0.00,,,0.00,0.0,meteohub,2013-01-13 10:15:00,
2013-01-13 04:20:00,1.2,-2.9,30.25,WNW,286,2.0,6.0,82,0.00,,,0.00,0.0,meteohub,2013-01-13 10:20:00,
2013-01-13 04:25:00,1.2,-2.9,30.25,WNW,282,4.0,7.0,82,0.00,,,0.00,0.0,meteohub,2013-01-13 10:25:00,
2013-01-13 04:30:00,1.4,-2.7,30.25,West,279,9.0,9.0,82,0.00,,,0.00,0.0,meteohub,2013-01-13 10:30:00,
2013-01-13 04:35:00,1.6,-2.6,30.25,West,267,4.0,9.0,82,0.00,,,0.00,0.0,meteohub,2013-01-13 10:35:00,
2013-01-13 04:40:00,1.6,-2.6,30.25,West,278,1.0,9.0,82,0.00,,,0.00,0.0,meteohub,2013-01-13 10:40:00,
2013-01-13 04:45:00,1.6,-2.6,30.25,West,269,5.0,9.0,82,0.00,,,0.00,0.0,meteohub,2013-01-13 10:45:00,
2013-01-13 04:50:00,1.8,-2.4,30.23,West,259,5.0,9.0,82,0.00,,,0.00,0.0,meteohub,2013-01-13 10:50:00,
2013-01-13 04:55:00,1.8,-2.2,30.22,WSW,254,3.0,8.0,83,0.00,,,0.00,0.0,meteohub,2013-01-13 10:55:00,
2013-01-13 05:00:00,1.8,-2.2,30.22,West,277,3.0,8.0,83,0.00,,,0.00,0.0,meteohub,2013-01-13 11:00:00,
2013-01-13 05:05:00,1.8,-2.4,30.22,North,349,4.0,8.0,82,0.00,,,0.00,0.0,meteohub,2013-01-13 11:05:00,
2013-01-13 05:10:00,1.6,-2.6,30.22,West,273,4.0,8.0,82,0.00,,,0.00,0.0,meteohub,2013-01-13 11:10:00,
2013-01-13 05:15:00,1.6,-2.9,30.22,WNW,303,1.0,8.0,81,0.00,,,0.00,0.0,meteohub,2013-01-13 11:15:00,
2013-01-13 05:20:00,1.6,-2.9,30.23,WNW,292,3.0,9.0,81,0.00,,,0.00,0.0,meteohub,2013-01-13 11:20:00,
2013-01-13 05:25:00,1.6,-2.9,30.23,NNW,332,4.0,9.0,81,0.00,,,0.00,0.0,meteohub,2013-01-13 11:25:00,
2013-01-13 05:30:00,1.6,-2.9,30.23,West,280,4.0,8.0,81,0.00,,,0.00,0.0,meteohub,2013-01-13 11:30:00,
2013-01-13 05:35:00,1.4,-3.3,30.23,West,277,5.0,9.0,80,0.00,,,0.00,0.0,meteohub,2013-01-13 11:35:00,
2013-01-13 05:40:00,1.4,-3.1,30.24,West,268,3.0,9.0,81,0.00,,,0.00,0.0,meteohub,2013-01-13 11:40:00,
2013-01-13 05:45:00,1.4,-3.1,30.24,NW,305,2.0,9.0,81,0.00,,,0.00,0.0,meteohub,2013-01-13 11:45:00,
2013-01-13 05:50:00,1.4,-3.3,30.24,WNW,300,4.0,10.0,80,0.00,,,0.00,0.0,meteohub,2013-01-13 11:50:00,
2013-01-13 05:55:00,1.2,-3.5,30.25,NW,321,1.0,11.0,80,0.00,,,0.00,0.0,meteohub,2013-01-13 11:55:00,
2013-01-13 06:00:00,1.2,-3.5,30.25,West,266,4.0,11.0,80,0.00,,,0.00,0.0,meteohub,2013-01-13 12:00:00,
2013-01-13 06:05:00,1.2,-3.5,30.25,WSW,254,3.0,11.0,80,0.00,,,0.00,0.0,meteohub,2013-01-13 12:05:00,
2013-01-13 06:10:00,1.2,-3.5,30.25,West,267,6.0,8.0,80,0.00,,,0.00,0.0,meteohub,2013-01-13 12:10:00,
2013-01-13 06:15:00,1.2,-3.5,30.26,NNW,339,1.0,8.0,80,0.00,,,0.00,0.0,meteohub,2013-01-13 12:15:00,
2013-01-13 06:20:00,1.2,-3.5,30.26,West,271,5.0,7.0,80,0.00,,,0.00,0.0,meteohub,2013-01-13 12:20:00,
2013-01-13 06:25:00,1.2,-3.5,30.26,West,262,6.0,7.0,80,0.00,,,0.00,0.0,meteohub,2013-01-13 12:25:00,
2013-01-13 06:30:00,1.2,-3.5,30.26,WNW,296,2.0,9.0,80,0.00,,,0.00,0.0,meteohub,2013-01-13 12:30:00,
2013-01-13 06:35:00,1.2,-3.5,30.26,West,273,1.0,9.0,80,0.00,,,0.00,0.0,meteohub,2013-01-13 12:35:00,
2013-01-13 06:40:00,1.2,-3.5,30.26,WNW,286,0.0,7.0,80,0.00,,,0.00,0.0,meteohub,2013-01-13 12:40:00,
2013-01-13 06:45:00,1.2,-3.5,30.26,West,261,3.0,8.0,80,0.00,,,0.00,0.0,meteohub,2013-01-13 12:45:00,
2013-01-13 06:50:00,1.0,-3.6,30.27,WNW,283,4.0,10.0,80,0.00,,,0.00,0.0,meteohub,2013-01-13 12:50:00,
2013-01-13 06:55:00,1.0,-3.6,30.27,West,259,3.0,10.0,80,0.00,,,0.00,0.0,meteohub,2013-01-13 12:55:00,
2013-01-13 07:00:00,1.0,-3.6,30.27,WSW,254,3.0,10.0,80,0.00,,,0.00,0.0,meteohub,2013-01-13 13:00:00,
2013-01-13 07:05:00,1.0,-3.6,30.27,West,279,1.0,7.0,80,0.00,,,0.00,0.0,meteohub,2013-01-13 13:05:00,
2013-01-13 07:11:00,1.0,-3.6,30.27,WNW,290,2.0,7.0,80,0.00,,,0.00,0.0,meteohub,2013-01-13 13:11:00,
2013-01-13 07:16:00,1.0,-3.6,30.27,West,259,2.0,6.0,80,0.00,,,0.00,0.0,meteohub,2013-01-13 13:16:00,
2013-01-13 07:21:00,1.0,-3.6,30.27,WNW,300,2.0,6.0,80,0.00,,,0.00,0.0,meteohub,2013-01-13 13:21:00,
2013-01-13 07:26:00,1.0,-3.6,30.27,NW,313,6.0,7.0,80,0.00,,,0.00,0.0,meteohub,2013-01-13 13:26:00,
2013-01-13 07:31:00,1.0,-3.6,30.27,West,279,3.0,8.0,80,0.00,,,0.00,0.0,meteohub,2013-01-13 13:31:00,
2013-01-13 07:36:00,0.9,-3.8,30.27,West,278,1.0,8.0,80,0.00,,,0.00,0.0,meteohub,2013-01-13 13:36:00,
2013-01-13 07:41:00,0.9,-3.8,30.27,West,280,3.0,8.0,80,0.00,,,0.00,0.0,meteohub,2013-01-13 13:41:00,
2013-01-13 07:46:00,0.9,-3.8,30.28,West,272,4.0,7.0,80,0.00,,,0.00,0.0,meteohub,2013-01-13 13:46:00,
2013-01-13 07:51:00,0.7,-4.0,30.28,West,272,2.0,8.0,80,0.00,,,0.00,0.0,meteohub,2013-01-13 13:51:00,
2013-01-13 07:56:00,0.7,-4.0,30.28,WSW,258,3.0,8.0,80,0.00,,,0.00,0.0,meteohub,2013-01-13 13:56:00,
2013-01-13 08:01:00,0.7,-4.0,30.29,West,261,2.0,9.0,80,0.00,,,0.00,5.0,meteohub,2013-01-13 14:01:00,
2013-01-13 08:06:00,0.7,-4.0,30.29,West,276,1.0,9.0,80,0.00,,,0.00,9.0,meteohub,2013-01-13 14:06:00,
2013-01-13 08:11:00,0.7,-3.8,30.30,West,267,2.0,6.0,81,0.00,,,0.00,11.0,meteohub,2013-01-13 14:11:00,
2013-01-13 08:16:00,0.7,-3.8,30.30,NW,313,1.0,7.0,81,0.00,,,0.00,14.0,meteohub,2013-01-13 14:16:00,
2013-01-13 08:21:00,0.7,-3.8,30.30,West,271,3.0,7.0,81,0.00,,,0.00,16.0,meteohub,2013-01-13 14:21:00,
2013-01-13 08:26:00,0.7,-4.0,30.31,NNW,329,0.0,8.0,80,0.00,,,0.00,21.0,meteohub,2013-01-13 14:26:00,
2013-01-13 08:31:00,0.7,-3.8,30.31,NW,310,2.0,8.0,81,0.00,,,0.00,25.0,meteohub,2013-01-13 14:31:00,
2013-01-13 08:36:00,0.9,-3.6,30.31,WNW,302,0.0,8.0,81,0.00,,,0.00,28.0,meteohub,2013-01-13 14:36:00,
2013-01-13 08:41:00,0.9,-3.6,30.31,West,279,1.0,6.0,81,0.00,,,0.00,33.0,meteohub,2013-01-13 14:41:00,
2013-01-13 08:46:00,0.9,-3.6,30.32,NW,305,1.0,6.0,81,0.00,,,0.00,40.0,meteohub,2013-01-13 14:46:00,
2013-01-13 08:51:00,0.9,-3.8,30.32,West,275,3.0,6.0,80,0.00,,,0.00,44.0,meteohub,2013-01-13 14:51:00,
2013-01-13 08:56:00,0.9,-3.8,30.32,NNW,342,5.0,6.0,80,0.00,,,0.00,51.0,meteohub,2013-01-13 14:56:00,
2013-01-13 09:01:00,1.0,-3.6,30.32,West,259,5.0,7.0,80,0.00,,,0.00,56.0,meteohub,2013-01-13 15:01:00,
2013-01-13 09:06:00,1.0,-3.6,30.32,WSW,250,4.0,7.0,80,0.00,,,0.00,62.0,meteohub,2013-01-13 15:06:00,
2013-01-13 09:11:00,1.2,-3.5,30.32,WNW,294,2.0,7.0,80,0.00,,,0.00,69.0,meteohub,2013-01-13 15:11:00,
2013-01-13 09:16:00,1.2,-3.8,30.32,NW,316,3.0,8.0,79,0.00,,,0.00,74.0,meteohub,2013-01-13 15:16:00,
2013-01-13 09:21:00,1.4,-3.6,30.32,WNW,287,2.0,8.0,79,0.00,,,0.00,74.0,meteohub,2013-01-13 15:21:00,
2013-01-13 09:26:00,1.4,-3.6,30.32,West,279,3.0,8.0,79,0.00,,,0.00,77.0,meteohub,2013-01-13 15:26:00,
2013-01-13 09:31:00,1.4,-3.8,30.32,WNW,301,1.0,6.0,78,0.00,,,0.00,81.0,meteohub,2013-01-13 15:31:00,
2013-01-13 09:36:00,1.4,-3.8,30.32,NNW,329,3.0,5.0,78,0.00,,,0.00,86.0,meteohub,2013-01-13 15:36:00,
2013-01-13 09:41:00,1.4,-4.2,30.32,West,259,0.0,5.0,77,0.00,,,0.00,86.0,meteohub,2013-01-13 15:41:00,
2013-01-13 09:46:00,1.6,-3.6,30.32,NW,325,1.0,5.0,78,0.00,,,0.00,91.0,meteohub,2013-01-13 15:46:00,
2013-01-13 09:51:00,1.6,-4.0,30.32,WNW,290,0.0,5.0,77,0.00,,,0.00,97.0,meteohub,2013-01-13 15:51:00,
2013-01-13 09:56:00,1.8,-3.5,30.32,West,269,0.0,4.0,78,0.00,,,0.00,100.0,meteohub,2013-01-13 15:56:00,
2013-01-13 10:01:00,1.9,-3.3,30.32,West,281,1.0,5.0,78,0.00,,,0.00,102.0,meteohub,2013-01-13 16:01:00,
2013-01-13 10:06:00,1.9,-3.6,30.33,WSW,257,5.0,5.0,77,0.00,,,0.00,97.0,meteohub,2013-01-13 16:06:00,
2013-01-13 10:11:00,1.8,-3.8,30.32,West,267,4.0,7.0,77,0.00,,,0.00,97.0,meteohub,2013-01-13 16:11:00,
2013-01-13 10:16:00,1.8,-4.0,30.32,West,275,1.0,7.0,76,0.00,,,0.00,98.0,meteohub,2013-01-13 16:16:00,
2013-01-13 10:21:00,1.9,-3.6,30.32,NW,314,2.0,7.0,77,0.00,,,0.00,98.0,meteohub,2013-01-13 16:21:00,
2013-01-13 10:26:00,1.9,-3.8,30.32,West,273,3.0,6.0,76,0.00,,,0.00,121.0,meteohub,2013-01-13 16:26:00,
2013-01-13 10:31:00,2.3,-3.5,30.32,WSW,254,1.0,6.0,76,0.00,,,0.00,114.0,meteohub,2013-01-13 16:31:00,
2013-01-13 10:36:00,2.1,-3.6,30.32,West,264,4.0,5.0,76,0.00,,,0.00,174.0,meteohub,2013-01-13 16:36:00,
2013-01-13 10:41:00,2.1,-3.5,30.31,West,277,4.0,8.0,77,0.00,,,0.00,156.0,meteohub,2013-01-13 16:41:00,
2013-01-13 10:46:00,2.5,-3.1,30.31,West,272,2.0,8.0,77,0.00,,,0.00,160.0,meteohub,2013-01-13 16:46:00,
2013-01-13 10:51:00,2.7,-3.1,30.31,West,269,4.0,8.0,76,0.00,,,0.00,151.0,meteohub,2013-01-13 16:51:00,
2013-01-13 10:56:00,3.2,-2.4,30.31,West,267,4.0,7.0,77,0.00,,,0.00,165.0,meteohub,2013-01-13 16:56:00,
2013-01-13 11:01:00,3.6,-2.0,30.31,West,267,4.0,7.0,77,0.00,,,0.00,139.0,meteohub,2013-01-13 17:01:00,
2013-01-13 11:06:00,3.6,-2.4,30.30,WNW,290,2.0,6.0,76,0.00,,,0.00,156.0,meteohub,2013-01-13 17:06:00,
2013-01-13 11:11:00,3.6,-2.4,30.30,WSW,244,5.0,7.0,76,0.00,,,0.00,165.0,meteohub,2013-01-13 17:11:00,
2013-01-13 11:17:00,3.6,-2.4,30.30,West,269,5.0,8.0,76,0.00,,,0.00,183.0,meteohub,2013-01-13 17:17:00,
2013-01-13 11:22:00,3.6,-2.4,30.30,WNW,288,3.0,8.0,76,0.00,,,0.00,169.0,meteohub,2013-01-13 17:22:00,
2013-01-13 11:27:00,3.7,-2.2,30.30,West,277,3.0,8.0,76,0.00,,,0.00,192.0,meteohub,2013-01-13 17:27:00,
2013-01-13 11:32:00,3.6,-2.9,30.30,West,263,5.0,8.0,74,0.00,,,0.00,125.0,meteohub,2013-01-13 17:32:00,
2013-01-13 11:37:00,3.6,-2.6,30.29,WSW,256,4.0,9.0,75,0.00,,,0.00,158.0,meteohub,2013-01-13 17:37:00,
2013-01-13 11:42:00,3.9,-2.2,30.29,West,267,4.0,9.0,75,0.00,,,0.00,167.0,meteohub,2013-01-13 17:42:00,
2013-01-13 11:47:00,4.3,-1.8,30.29,WNW,292,3.0,9.0,75,0.00,,,0.00,160.0,meteohub,2013-01-13 17:47:00,
2013-01-13 11:52:00,4.3,-2.2,30.29,West,277,4.0,8.0,74,0.00,,,0.00,237.0,meteohub,2013-01-13 17:52:00,
2013-01-13 11:57:00,4.5,-1.7,30.28,West,280,4.0,6.0,75,0.00,,,0.00,248.0,meteohub,2013-01-13 17:57:00,
2013-01-13 12:02:00,4.5,-2.0,30.28,West,273,4.0,6.0,74,0.00,,,0.00,264.0,meteohub,2013-01-13 18:02:00,
2013-01-13 12:07:00,4.6,-1.8,30.28,WNW,283,3.0,7.0,74,0.00,,,0.00,302.0,meteohub,2013-01-13 18:07:00,
2013-01-13 12:12:00,4.8,-1.7,30.28,WNW,285,1.0,7.0,74,0.00,,,0.00,346.0,meteohub,2013-01-13 18:12:00,
2013-01-13 12:17:00,5.2,-1.7,30.27,WSW,257,5.0,7.0,73,0.00,,,0.00,230.0,meteohub,2013-01-13 18:17:00,
2013-01-13 12:22:00,5.4,-1.5,30.27,WNW,296,4.0,8.0,73,0.00,,,0.00,162.0,meteohub,2013-01-13 18:22:00,
2013-01-13 12:27:00,5.5,-1.3,30.27,West,274,4.0,8.0,73,0.00,,,0.00,192.0,meteohub,2013-01-13 18:27:00,
2013-01-13 12:32:00,5.7,-1.3,30.27,West,271,4.0,8.0,72,0.00,,,0.00,332.0,meteohub,2013-01-13 18:32:00,
2013-01-13 12:37:00,5.9,-1.1,30.27,WSW,244,6.0,8.0,72,0.00,,,0.00,290.0,meteohub,2013-01-13 18:37:00,
2013-01-13 12:42:00,6.3,-0.8,30.27,West,266,1.0,8.0,72,0.00,,,0.00,274.0,meteohub,2013-01-13 18:42:00,
2013-01-13 12:47:00,6.1,-0.9,30.27,WSW,250,1.0,8.0,72,0.00,,,0.00,264.0,meteohub,2013-01-13 18:47:00,
2013-01-13 12:52:00,6.3,-0.8,30.27,West,272,4.0,7.0,72,0.00,,,0.00,213.0,meteohub,2013-01-13 18:52:00,
2013-01-13 12:57:00,6.3,-0.6,30.27,West,273,3.0,6.0,73,0.00,,,0.00,176.0,meteohub,2013-01-13 18:57:00,
2013-01-13 13:02:00,6.4,-0.4,30.27,WNW,286,3.0,6.0,73,0.00,,,0.00,172.0,meteohub,2013-01-13 19:02:00,
2013-01-13 13:07:00,6.4,-0.6,30.26,West,262,4.0,7.0,72,0.00,,,0.00,197.0,meteohub,2013-01-13 19:07:00,
2013-01-13 13:12:00,7.0,-0.2,30.26,West,266,5.0,7.0,72,0.00,,,0.00,216.0,meteohub,2013-01-13 19:12:00,
2013-01-13 13:17:00,7.3,0.1,30.26,West,264,5.0,7.0,72,0.00,,,0.00,241.0,meteohub,2013-01-13 19:17:00,
2013-01-13 13:22:00,7.9,1.0,30.27,WSW,242,3.0,7.0,73,0.00,,,0.00,230.0,meteohub,2013-01-13 19:22:00,
2013-01-13 13:27:00,7.9,0.5,30.27,West,267,5.0,7.0,71,0.00,,,0.00,218.0,meteohub,2013-01-13 19:27:00,
2013-01-13 13:32:00,7.9,0.7,30.27,West,261,3.0,7.0,72,0.00,,,0.00,202.0,meteohub,2013-01-13 19:32:00,
2013-01-13 13:37:00,7.7,0.3,30.27,WSW,246,5.0,6.0,71,0.00,,,0.00,190.0,meteohub,2013-01-13 19:37:00,
2013-01-13 13:42:00,7.9,0.7,30.27,West,267,5.0,7.0,72,0.00,,,0.00,185.0,meteohub,2013-01-13 19:42:00,
2013-01-13 13:47:00,7.9,0.7,30.27,West,270,2.0,8.0,72,0.00,,,0.00,186.0,meteohub,2013-01-13 19:47:00,
2013-01-13 13:52:00,8.1,0.9,30.27,WSW,252,6.0,8.0,72,0.00,,,0.00,195.0,meteohub,2013-01-13 19:52:00,
2013-01-13 13:57:00,8.2,0.9,30.27,West,277,2.0,8.0,71,0.00,,,0.00,229.0,meteohub,2013-01-13 19:57:00,
2013-01-13 14:02:00,8.8,1.6,30.27,WNW,282,2.0,8.0,72,0.00,,,0.00,200.0,meteohub,2013-01-13 20:02:00,
2013-01-13 14:07:00,8.8,1.2,30.27,WNW,284,1.0,8.0,71,0.00,,,0.00,195.0,meteohub,2013-01-13 20:07:00,
2013-01-13 14:12:00,9.0,1.8,30.27,West,271,2.0,5.0,72,0.00,,,0.00,195.0,meteohub,2013-01-13 20:12:00,
2013-01-13 14:17:00,9.1,1.9,30.27,West,265,4.0,5.0,72,0.00,,,0.00,190.0,meteohub,2013-01-13 20:17:00,
2013-01-13 14:22:00,9.1,1.6,30.27,West,261,4.0,7.0,71,0.00,,,0.00,202.0,meteohub,2013-01-13 20:22:00,
2013-01-13 14:27:00,9.1,1.6,30.27,West,261,3.0,8.0,71,0.00,,,0.00,181.0,meteohub,2013-01-13 20:27:00,
2013-01-13 14:32:00,9.1,1.6,30.28,West,265,3.0,8.0,71,0.00,,,0.00,171.0,meteohub,2013-01-13 20:32:00,
2013-01-13 14:37:00,9.1,2.3,30.28,West,272,3.0,8.0,73,0.00,,,0.00,165.0,meteohub,2013-01-13 20:37:00,
2013-01-13 14:42:00,9.1,1.9,30.29,WSW,258,5.0,8.0,72,0.00,,,0.00,169.0,meteohub,2013-01-13 20:42:00,
2013-01-13 14:47:00,9.1,1.9,30.29,West,276,3.0,8.0,72,0.00,,,0.00,162.0,meteohub,2013-01-13 20:47:00,
2013-01-13 14:52:00,9.3,2.1,30.29,West,263,5.0,7.0,72,0.00,,,0.00,141.0,meteohub,2013-01-13 20:52:00,
2013-01-13 14:57:00,9.3,1.8,30.29,West,261,5.0,7.0,71,0.00,,,0.00,132.0,meteohub,2013-01-13 20:57:00,
2013-01-13 15:02:00,9.1,1.6,30.29,WSW,255,3.0,8.0,71,0.00,,,0.00,125.0,meteohub,2013-01-13 21:02:00,
2013-01-13 15:07:00,9.3,2.1,30.30,West,261,3.0,8.0,72,0.00,,,0.00,123.0,meteohub,2013-01-13 21:07:00,
2013-01-13 15:12:00,9.5,2.7,30.30,West,279,3.0,8.0,73,0.00,,,0.00,111.0,meteohub,2013-01-13 21:12:00,
2013-01-13 15:17:00,9.5,2.3,30.29,WSW,258,3.0,6.0,72,0.00,,,0.00,97.0,meteohub,2013-01-13 21:17:00,
2013-01-13 15:22:00,9.5,2.3,30.29,WSW,257,2.0,6.0,72,0.00,,,0.00,93.0,meteohub,2013-01-13 21:22:00,
2013-01-13 15:27:00,9.3,2.1,30.30,West,263,4.0,6.0,72,0.00,,,0.00,90.0,meteohub,2013-01-13 21:27:00,
2013-01-13 15:32:00,9.9,3.0,30.29,West,275,4.0,6.0,73,0.00,,,0.00,79.0,meteohub,2013-01-13 21:32:00,
2013-01-13 15:37:00,9.9,3.0,30.30,West,266,2.0,6.0,73,0.00,,,0.00,69.0,meteohub,2013-01-13 21:37:00,
2013-01-13 15:42:00,9.9,3.0,30.30,West,270,4.0,5.0,73,0.00,,,0.00,65.0,meteohub,2013-01-13 21:42:00,
2013-01-13 15:47:00,9.9,2.7,30.30,WSW,242,3.0,5.0,72,0.00,,,0.00,65.0,meteohub,2013-01-13 21:47:00,
2013-01-13 15:52:00,9.9,2.7,30.30,West,273,1.0,5.0,72,0.00,,,0.00,65.0,meteohub,2013-01-13 21:52:00,
2013-01-13 15:57:00,10.0,3.2,30.30,West,262,4.0,7.0,73,0.00,,,0.00,67.0,meteohub,2013-01-13 21:57:00,
2013-01-13 16:02:00,10.2,3.6,30.30,West,265,4.0,7.0,74,0.00,,,0.00,62.0,meteohub,2013-01-13 22:02:00,
2013-01-13 16:07:00,10.0,3.2,30.30,West,259,2.0,7.0,73,0.00,,,0.00,49.0,meteohub,2013-01-13 22:07:00,
2013-01-13 16:12:00,10.2,3.6,30.30,West,271,3.0,7.0,74,0.00,,,0.00,42.0,meteohub,2013-01-13 22:12:00,
2013-01-13 16:18:00,10.2,3.9,30.30,West,271,2.0,6.0,75,0.00,,,0.00,37.0,meteohub,2013-01-13 22:18:00,
2013-01-13 16:23:00,10.2,3.9,30.30,WSW,247,2.0,5.0,75,0.00,,,0.00,32.0,meteohub,2013-01-13 22:23:00,
2013-01-13 16:28:00,10.2,4.1,30.31,West,260,0.0,5.0,76,0.00,,,0.00,26.0,meteohub,2013-01-13 22:28:00,
2013-01-13 16:33:00,10.2,4.1,30.31,West,260,1.0,4.0,76,0.00,,,0.00,21.0,meteohub,2013-01-13 22:33:00,
2013-01-13 16:38:00,10.2,4.1,30.31,West,260,0.0,3.0,76,0.00,,,0.00,18.0,meteohub,2013-01-13 22:38:00,
2013-01-13 16:43:00,10.2,4.1,30.31,West,260,0.0,2.0,76,0.00,,,0.00,16.0,meteohub,2013-01-13 22:43:00,
2013-01-13 16:48:00,10.2,4.5,30.31,West,273,0.0,2.0,77,0.00,,,0.00,12.0,meteohub,2013-01-13 22:48:00,
2013-01-13 16:53:00,10.0,4.3,30.31,West,273,1.0,3.0,77,0.00,,,0.00,11.0,meteohub,2013-01-13 22:53:00,
2013-01-13 16:58:00,10.0,4.6,30.31,West,273,0.0,3.0,78,0.00,,,0.00,7.0,meteohub,2013-01-13 22:58:00,
2013-01-13 17:03:00,9.9,4.5,30.31,West,273,0.0,3.0,78,0.00,,,0.00,5.0,meteohub,2013-01-13 23:03:00,
2013-01-13 17:08:00,9.9,4.6,30.31,West,273,0.0,2.0,79,0.00,,,0.00,0.0,meteohub,2013-01-13 23:08:00,
2013-01-13 17:13:00,9.7,4.5,30.32,West,273,0.0,2.0,79,0.00,,,0.00,0.0,meteohub,2013-01-13 23:13:00,
2013-01-13 17:18:00,9.7,4.5,30.32,West,273,2.0,2.0,79,0.00,,,0.00,0.0,meteohub,2013-01-13 23:18:00,
2013-01-13 17:23:00,9.7,4.8,30.32,West,273,1.0,2.0,80,0.00,,,0.00,0.0,meteohub,2013-01-13 23:23:00,
2013-01-13 17:28:00,9.7,4.8,30.31,West,273,0.0,2.0,80,0.00,,,0.00,0.0,meteohub,2013-01-13 23:28:00,
2013-01-13 17:33:00,9.7,4.8,30.31,West,273,0.0,2.0,80,0.00,,,0.00,0.0,meteohub,2013-01-13 23:33:00,
2013-01-13 17:38:00,9.7,4.8,30.31,West,273,0.0,2.0,80,0.00,,,0.00,0.0,meteohub,2013-01-13 23:38:00,
2013-01-13 17:43:00,9.5,4.6,30.31,West,273,0.0,2.0,80,0.00,,,0.00,0.0,meteohub,2013-01-13 23:43:00,
2013-01-13 17:48:00,9.5,4.8,30.31,West,273,0.0,2.0,81,0.00,,,0.00,0.0,meteohub,2013-01-13 23:48:00,
2013-01-13 17:53:00,9.5,4.8,30.31,West,273,0.0,1.0,81,0.00,,,0.00,0.0,meteohub,2013-01-13 23:53:00,
2013-01-13 17:58:00,9.3,4.6,30.32,West,273,0.0,2.0,81,0.00,,,0.00,0.0,meteohub,2013-01-13 23:58:00,
2013-01-13 18:03:00,9.1,4.5,30.32,West,273,0.0,2.0,81,0.00,,,0.00,0.0,meteohub,2013-01-14 00:03:00,
2013-01-13 18:08:00,9.0,4.6,30.32,West,273,0.0,2.0,82,0.00,,,0.00,0.0,meteohub,2013-01-14 00:08:00,
2013-01-13 18:13:00,9.1,4.8,30.32,West,273,0.0,0.0,82,0.00,,,0.00,0.0,meteohub,2013-01-14 00:13:00,
2013-01-13 18:18:00,9.1,4.8,30.32,West,273,0.0,0.0,82,0.00,,,0.00,0.0,meteohub,2013-01-14 00:18:00,
2013-01-13 18:23:00,9.1,4.8,30.32,West,273,0.0,0.0,82,0.00,,,0.00,0.0,meteohub,2013-01-14 00:23:00,
2013-01-13 18:28:00,9.1,4.8,30.32,West,273,0.0,0.0,82,0.00,,,0.00,0.0,meteohub,2013-01-14 00:28:00,
2013-01-13 18:33:00,9.3,5.0,30.32,West,272,0.0,0.0,82,0.00,,,0.00,0.0,meteohub,2013-01-14 00:33:00,
2013-01-13 18:38:00,9.3,5.0,30.32,West,272,0.0,2.0,82,0.00,,,0.00,0.0,meteohub,2013-01-14 00:38:00,
2013-01-13 18:43:00,9.1,4.8,30.32,West,272,0.0,2.0,82,0.00,,,0.00,0.0,meteohub,2013-01-14 00:43:00,
2013-01-13 18:48:00,9.1,5.0,30.33,West,272,0.0,2.0,83,0.00,,,0.00,0.0,meteohub,2013-01-14 00:48:00,
2013-01-13 18:53:00,9.1,5.0,30.32,West,272,0.0,1.0,83,0.00,,,0.00,0.0,meteohub,2013-01-14 00:53:00,
2013-01-13 18:58:00,9.1,5.0,30.32,West,272,0.0,1.0,83,0.00,,,0.00,0.0,meteohub,2013-01-14 00:58:00,
2013-01-13 19:03:00,9.0,4.8,30.33,West,272,2.0,2.0,83,0.00,,,0.00,0.0,meteohub,2013-01-14 01:03:00,
2013-01-13 19:08:00,9.0,4.8,30.32,West,272,0.0,1.0,83,0.00,,,0.00,0.0,meteohub,2013-01-14 01:08:00,
2013-01-13 19:13:00,9.0,4.8,30.32,West,274,3.0,3.0,83,0.00,,,0.00,0.0,meteohub,2013-01-14 01:13:00,
2013-01-13 19:18:00,8.8,4.6,30.32,West,274,1.0,3.0,83,0.00,,,0.00,0.0,meteohub,2013-01-14 01:18:00,
2013-01-13 19:23:00,8.8,5.0,30.33,West,273,2.0,3.0,84,0.00,,,0.00,0.0,meteohub,2013-01-14 01:23:00,
2013-01-13 19:28:00,8.8,4.6,30.33,West,261,2.0,3.0,83,0.00,,,0.00,0.0,meteohub,2013-01-14 01:28:00,
2013-01-13 19:33:00,8.8,4.6,30.33,WSW,249,0.0,5.0,83,0.00,,,0.00,0.0,meteohub,2013-01-14 01:33:00,
2013-01-13 19:38:00,8.6,4.5,30.33,WSW,249,1.0,5.0,83,0.00,,,0.00,0.0,meteohub,2013-01-14 01:38:00,
2013-01-13 19:43:00,8.6,4.5,30.34,West,275,1.0,5.0,83,0.00,,,0.00,0.0,meteohub,2013-01-14 01:43:00,
2013-01-13 19:48:00,8.4,4.3,30.33,West,275,0.0,3.0,83,0.00,,,0.00,0.0,meteohub,2013-01-14 01:48:00,
2013-01-13 19:53:00,8.4,4.3,30.33,West,275,1.0,3.0,83,0.00,,,0.00,0.0,meteohub,2013-01-14 01:53:00,
2013-01-13 19:58:00,8.2,4.1,30.33,West,275,0.0,3.0,83,0.00,,,0.00,0.0,meteohub,2013-01-14 01:58:00,
2013-01-13 20:03:00,8.2,4.1,30.33,WNW,294,1.0,2.0,83,0.00,,,0.00,0.0,meteohub,2013-01-14 02:03:00,
2013-01-13 20:08:00,8.2,4.1,30.33,West,274,0.0,3.0,83,0.00,,,0.00,0.0,meteohub,2013-01-14 02:08:00,
2013-01-13 20:13:00,8.2,3.9,30.33,West,280,3.0,3.0,82,0.00,,,0.00,0.0,meteohub,2013-01-14 02:13:00,
2013-01-13 20:18:00,8.1,3.7,30.33,West,261,2.0,3.0,82,0.00,,,0.00,0.0,meteohub,2013-01-14 02:18:00,
2013-01-13 20:23:00,8.1,3.7,30.33,West,276,1.0,3.0,82,0.00,,,0.00,0.0,meteohub,2013-01-14 02:23:00,
2013-01-13 20:28:00,8.1,3.7,30.33,West,275,0.0,3.0,82,0.00,,,0.00,0.0,meteohub,2013-01-14 02:28:00,
2013-01-13 20:33:00,8.1,3.7,30.33,West,266,1.0,3.0,82,0.00,,,0.00,0.0,meteohub,2013-01-14 02:33:00,
2013-01-13 20:38:00,8.1,3.9,30.33,West,266,0.0,3.0,83,0.00,,,0.00,0.0,meteohub,2013-01-14 02:38:00,
2013-01-13 20:43:00,7.9,3.7,30.33,West,266,1.0,3.0,83,0.00,,,0.00,0.0,meteohub,2013-01-14 02:43:00,
2013-01-13 20:48:00,7.9,3.7,30.33,West,266,0.0,3.0,83,0.00,,,0.00,0.0,meteohub,2013-01-14 02:48:00,
2013-01-13 20:53:00,7.9,3.7,30.33,West,266,1.0,2.0,83,0.00,,,0.00,0.0,meteohub,2013-01-14 02:53:00,
2013-01-13 20:58:00,7.9,3.7,30.33,West,269,2.0,2.0,83,0.00,,,0.00,0.0,meteohub,2013-01-14 02:58:00,
2013-01-13 21:03:00,7.9,3.7,30.33,West,269,2.0,3.0,83,0.00,,,0.00,0.0,meteohub,2013-01-14 03:03:00,
2013-01-13 21:08:00,7.7,3.6,30.34,West,269,0.0,3.0,83,0.00,,,0.00,0.0,meteohub,2013-01-14 03:08:00,
2013-01-13 21:14:00,7.7,3.6,30.34,West,269,1.0,3.0,83,0.00,,,0.00,0.0,meteohub,2013-01-14 03:14:00,
2013-01-13 21:19:00,7.5,3.4,30.34,West,269,0.0,2.0,83,0.00,,,0.00,0.0,meteohub,2013-01-14 03:19:00,
2013-01-13 21:24:00,7.5,3.4,30.34,West,269,0.0,2.0,83,0.00,,,0.00,0.0,meteohub,2013-01-14 03:24:00,
2013-01-13 21:29:00,7.5,3.4,30.35,West,269,0.0,2.0,83,0.00,,,0.00,0.0,meteohub,2013-01-14 03:29:00,
2013-01-13 21:34:00,7.5,3.4,30.35,West,269,1.0,2.0,83,0.00,,,0.00,0.0,meteohub,2013-01-14 03:34:00,
2013-01-13 21:39:00,7.3,3.2,30.35,West,263,1.0,2.0,83,0.00,,,0.00,0.0,meteohub,2013-01-14 03:39:00,
2013-01-13 21:44:00,7.3,3.2,30.35,West,263,2.0,4.0,83,0.00,,,0.00,0.0,meteohub,2013-01-14 03:44:00,
2013-01-13 21:49:00,7.3,3.2,30.35,West,263,0.0,4.0,83,0.00,,,0.00,0.0,meteohub,2013-01-14 03:49:00,
2013-01-13 21:54:00,7.3,3.2,30.35,West,263,0.0,4.0,83,0.00,,,0.00,0.0,meteohub,2013-01-14 03:54:00,
2013-01-13 21:59:00,7.3,3.2,30.35,WNW,298,1.0,2.0,83,0.00,,,0.00,0.0,meteohub,2013-01-14 03:59:00,
2013-01-13 22:04:00,7.5,3.4,30.35,WNW,284,1.0,2.0,83,0.00,,,0.00,0.0,meteohub,2013-01-14 04:04:00,
2013-01-13 22:09:00,7.5,3.4,30.35,WNW,284,0.0,3.0,83,0.00,,,0.00,0.0,meteohub,2013-01-14 04:09:00,
2013-01-13 22:14:00,7.5,3.4,30.35,WNW,284,0.0,3.0,83,0.00,,,0.00,0.0,meteohub,2013-01-14 04:14:00,
2013-01-13 22:19:00,7.5,3.4,30.35,WNW,284,1.0,3.0,83,0.00,,,0.00,0.0,meteohub,2013-01-14 04:19:00,
2013-01-13 22:24:00,7.5,3.4,30.35,West,267,2.0,2.0,83,0.00,,,0.00,0.0,meteohub,2013-01-14 04:24:00,
2013-01-13 22:29:00,7.3,3.2,30.35,West,269,1.0,2.0,83,0.00,,,0.00,0.0,meteohub,2013-01-14 04:29:00,
2013-01-13 22:34:00,7.3,3.2,30.35,West,269,0.0,3.0,83,0.00,,,0.00,0.0,meteohub,2013-01-14 04:34:00,
2013-01-13 22:39:00,7.3,3.2,30.36,West,269,0.0,3.0,83,0.00,,,0.00,0.0,meteohub,2013-01-14 04:39:00,
2013-01-13 22:44:00,7.3,3.2,30.36,West,269,0.0,2.0,83,0.00,,,0.00,0.0,meteohub,2013-01-14 04:44:00,
2013-01-13 22:49:00,7.2,3.0,30.36,West,269,0.0,2.0,83,0.00,,,0.00,0.0,meteohub,2013-01-14 04:49:00,
2013-01-13 22:54:00,7.2,2.8,30.36,West,269,0.0,1.0,82,0.00,,,0.00,0.0,meteohub,2013-01-14 04:54:00,
2013-01-13 22:59:00,7.0,2.7,30.36,West,269,0.0,1.0,82,0.00,,,0.00,0.0,meteohub,2013-01-14 04:59:00,
2013-01-13 23:00:00,7.0,2.7,30.36,West,269,0.0,1.0,82,0.00,,,0.00,0.0,meteohub,2013-01-14 05:00:00,
2013-01-13 23:01:00,7.0,2.7,30.36,West,269,0.0,2.0,82,0.00,,,0.00,0.0,meteohub,2013-01-14 05:01:00,
2013-01-13 23:03:00,7.0,2.7,30.36,West,269,0.0,2.0,82,0.00,,,0.00,0.0,meteohub,2013-01-14 05:03:00,
2013-01-13 23:08:00,6.8,2.7,30.36,West,269,0.0,2.0,83,0.00,,,0.00,0.0,meteohub,2013-01-14 05:08:00,
2013-01-13 23:13:00,6.6,2.5,30.36,West,261,0.0,2.0,83,0.00,,,0.00,0.0,meteohub,2013-01-14 05:13:00,
2013-01-13 23:18:00,6.4,2.3,30.36,West,261,0.0,2.0,83,0.00,,,0.00,0.0,meteohub,2013-01-14 05:18:00,
2013-01-13 23:23:00,6.4,2.3,30.37,West,261,0.0,2.0,83,0.00,,,0.00,0.0,meteohub,2013-01-14 05:23:00,
2013-01-13 23:28:00,6.4,2.7,30.37,West,281,0.0,2.0,84,0.00,,,0.00,0.0,meteohub,2013-01-14 05:28:00,
2013-01-13 23:33:00,6.4,2.7,30.37,WSW,250,1.0,2.0,84,0.00,,,0.00,0.0,meteohub,2013-01-14 05:33:00,
2013-01-13 23:38:00,6.3,2.5,30.37,WSW,250,0.0,2.0,84,0.00,,,0.00,0.0,meteohub,2013-01-14 05:38:00,
2013-01-13 23:43:00,6.3,2.5,30.37,WSW,250,0.0,2.0,84,0.00,,,0.00,0.0,meteohub,2013-01-14 05:43:00,
2013-01-13 23:48:00,6.3,2.5,30.37,WSW,250,0.0,2.0,84,0.00,,,0.00,0.0,meteohub,2013-01-14 05:48:00,
2013-01-13 23:53:00,6.1,2.3,30.37,WSW,250,0.0,1.0,84,0.00,,,0.00,0.0,meteohub,2013-01-14 05:53:00,
2013-01-13 23:58:00,6.1,2.3,30.37,WSW,250,0.0,1.0,84,0.00,,,0.00,0.0,meteohub,2013-01-14 05:58:00,